Regional Weather Roundup
Issued by NWS

Home | Current Version | Previous Version | Graphics & Text | Print | Product List | Glossary On
Versions: 1 2 3 4 5 6 7 8 9 10 11 12 13 14 15 16 17 18 19 20 21 22 23 24 25 26 27 28 29 30 31 32 33 34 35 36 37 38 39 40 41 42 43 44 45 46 47 48 49 50
000
ASUS43 KIND 232209
RWRIN

WEATHER ROUNDUP FOR INDIANA
NATIONAL WEATHER SERVICE INDIANAPOLIS IN
600 PM EDT SUN APR 23 2017

NOTE: "FAIR" INDICATES FEW OR NO CLOUDS BELOW 12,000 FEET WITH NO
SIGNIFICANT WEATHER AND/OR OBSTRUCTIONS TO VISIBILITY.

* - STATION DOES NOT REPORT WEATHER SUCH AS PRECIPITATION OR FOG.

+ - STATION NOT QUALITY CONTROLLED BY THE NATIONAL WEATHER SERVICE.
    USE DATA WITH CAUTION...ESPECIALLY DEWPOINT AND RELATIVE
    HUMIDITY OBSERVATIONS.

INZ001>003-010>013-019-020-232300-
NORTHWEST INDIANA

CITY           SKY/WX    TMP DP  RH WIND       PRES   REMARKS
GARY /AIRPORT/ SUNNY     66  12  12 NE7       30.06F
KNOX *+        SUNNY    N/A N/A N/A N7        30.03S
LA PORTE +     SUNNY     67  23  18 NE7       30.05S
MICHIGAN CITY+ SUNNY     63  28  27 N9        30.06S
MONTICELLO +   SUNNY     69  27  20 NE8       30.02S
RENSSELAER +   SUNNY     72  27  18 N9        30.03S
VALPARAISO     SUNNY     69  21  16 NE5       30.05F

$$

LMZ046-743>745-232300-
SOUTHERN LAKE MICHIGAN

STATION/POSITION TIME  TEMP    WIND        PRES    WAVE
                       AIR SEA DIR/SP/G            HT
                 (UTC) (F)     (DEG/KT/KT) (MB)    (FT)
BURNS HARBOR     2140   58      50/  4/  4 1018.3F
MICHIGAN CITY    2140   55      10/  4/  4   N/A

$$

INZ004-005-014>016-021>024-232300-
NORTH CENTRAL INDIANA

CITY           SKY/WX    TMP DP  RH WIND       PRES   REMARKS
ELKHART        SUNNY     68  28  22 NE6       30.03S
GOSHEN         SUNNY     68  31  25 E6        30.03F
LOGANSPORT +   SUNNY     68  32  26 NE6       30.02F
PERU/GRISSOM   SUNNY     68  33  27 N13       30.00F
ROCHESTER +    SUNNY     70  28  21 NE6       30.03F
SOUTH BEND     SUNNY     68  27  21 NE5       30.04F
WARSAW +       SUNNY     68  32  26 SE3       30.03F

$$

INZ006>009-017-018-025>027-232300-
NORTHEAST INDIANA

CITY           SKY/WX    TMP DP  RH WIND       PRES   REMARKS
ANGOLA *+      SUNNY     68  61  77 N5        30.03S
AUBURN +       SUNNY     66  32  28 CALM      30.04F
FORT WAYNE     MOSUNNY   67  32  27 NE9       30.03F
HUNTINGTON +   SUNNY     67  25  20 N10       30.02S
KENDALLVILLE + SUNNY     68  35  30 SE3       30.04S

$$

INZ028-029-035-036-043>045-051>053-232300-
WEST CENTRAL INDIANA

CITY           SKY/WX    TMP DP  RH WIND       PRES   REMARKS
CRAWFORDSVL +  SUNNY     67  29  23 NE15G23   29.99S
GREENCASTLE +  SUNNY     68  30  24 NE13      29.99S
LAFAYETTE      SUNNY     68  34  28 N9        30.00F
TERRE HAUTE    SUNNY     71  26  18 NE16G22   29.97F

$$

INZ030>032-037>040-046>048-054>057-064-065-232300-
CENTRAL INDIANA

CITY           SKY/WX    TMP DP  RH WIND       PRES   REMARKS
CP ATTERBURY + SUNNY     70  32  24 NE13      29.96S
COLUMBUS       SUNNY     68  23  18 NE14      29.96S
FISHERS *+     SUNNY     70  39  32 NE12G17   29.99S
FRANKFORT +    SUNNY     71  28  19 NE15G23   30.02S
GREENWOOD *+   SUNNY     71  31  23 NE16G23   29.98R
INDIANAPOLIS   MOSUNNY   70  32  24 NE17      29.98R
-EAGLE CREEK   SUNNY     70  29  21 E15       29.98R
KOKOMO +       SUNNY     68  32  26 NE12      30.02F
MARION +       SUNNY     66  28  24 NE16      30.00F
MT COMFORT *+  SUNNY     68  34  28 NE15G22   29.99R
SHELBYVILLE    SUNNY     73  29  19 NE15      29.96S
ZIONSVILLE +   SUNNY     68  26  20 NE18      29.99S

$$

INZ033-034-041-042-049-050-058-059-232300-
EAST CENTRAL INDIANA

CITY           SKY/WX    TMP DP  RH WIND       PRES   REMARKS
MUNCIE         SUNNY     71  27  19 NE15      29.99S
RICHMOND +     CLOUDY    64  30  27 NE14G20   29.98S

$$

INZ060-061-067>069-081>083-085>088-232300-
SOUTHWEST INDIANA

CITY           SKY/WX    TMP DP  RH WIND       PRES   REMARKS
EVANSVILLE     SUNNY     72  34  24 NE12      29.91S
HUNTINGBURG *+ SUNNY     69  35  28 NE18G24   29.91S
WASHINGTON +   SUNNY     71  26  18 CALM      29.92S

$$

INZ062-063-066-070>080-084-089>092-232300-
SOUTH CENTRAL AND SOUTHEAST INDIANA

CITY           SKY/WX    TMP DP  RH WIND       PRES   REMARKS
BEDFORD +      MOSUNNY   70  23  17 NE14G25   29.93S
BLOOMINGTON    SUNNY     71  32  23 NE15G23   29.95S
MADISON *+     CLOUDY    63  30  29 NE12G18   29.97S
NORTH VERNON + MOSUNNY   66  28  24 NE16      29.96
SEYMOUR +      CLOUDY    68  36  30 E16G23    29.95R

$$




USA.gov is the U.S. government's official web portal to all federal, state and local government web resources and services.